Tallahassee

United States     30˚26′33″N   84˚17′13″W
temp.,
°C
wind,
m/s
gust,
m/s
humid.,
%
clouds,
%
prec.,
mm/h
press.,
hPa
HPBL,
m
27 november, fri
fri2701:00+19˚sw229749 0.1 101949
04:00+18˚wsw119599 0.0 101923
07:00+18˚w119698 0.7 102023
10:00+22˚n118145 0.1 1020286
13:00+25˚wsw247266 2.7 1018477
16:00+25˚sw237147 1.0 1016634
19:00+20˚ssw238928 1.2 101762
22:00+20˚ssw229297 0.6 101870
28 november, sat
sat2801:00+19˚w239599 1.9 1017124
04:00+18˚nne2597100 2.3 1017225
07:00+17˚nne2396100 2.6 1017169
10:00+18˚ene1293100 0.3 1019193
13:00+19˚nne3489100 0.3 1018402
16:00+20˚ne3580100 0.0 1017560
19:00+18˚ne269099 0.0 1018376
22:00+16˚ene259499 0.0 1019259
29 november, sun
sun2901:00+15˚e269395 0.0 1018282
04:00+14˚ene369686 0.0 1018262
07:00+15˚e259589 0.0 1018273
10:00+16˚e2493100 0.3 1019297
13:00+18˚e3586100 0.3 1016396
16:00+17˚se2797100 3.7 1014404
19:00+19˚s41296100 10.2 1013821
22:00+20˚ssw31296100 2.6 1012627
30 november, mon
mon3001:00+20˚ssw41295100 3.3 1011839
04:00+19˚sw31297100 1.6 1010812
07:00+15˚nw4109296 2.5 1011535
10:00+13˚nw5881100 0.0 1013794
13:00+13˚nw5871100 0.1 1014931
16:00+13˚nw5962100 0.0 10131237
19:00+9˚nw496861 0.0 10161092
22:00+7˚nw5106831 0.0 10181010
1 december, tue
tue101:00+4˚nw5105616 0.0 1019860
04:00+2˚nw410570 0.0 1020781
07:00+1˚nw410550 0.0 1022727
10:00+4˚nw48430 0.0 1024752
13:00+8˚nw36350 0.0 1022842
16:00+9˚nw35370 0.0 1021859
19:00+4˚nw22530 0.0 102233
22:00+3˚wnw12570 0.0 102322